Hourly Data Report for July 15, 2021

NORTH CAPE
PRINCE EDWARD ISLAND
Current Station Operator: ECCC - MSC

47°03'29.000" N
63°59'55.000" W
7.60 m
8300516
71987
WNE

Download Data

Hourly Data (July 2021)
Hourly Data Report for July 15, 2021
TIME
LST
Temp Definition
°C
Dew Point Definition
°C
Rel Hum Definition
%
Precip. Amount Definition
mm

Wind Dir Definition
10's deg

Wind Spd Definition
km/h
Visibility Definition
km
Stn Press Definition
kPa
Hmdx Definition


Wind Chill Definition


Weather Definition


00:00 19.7 15.2 75 0.0 18 19   101.82     LegendNANA
01:00 18.1 16.8 92 1.1 18 21   101.80     LegendNANA
02:00 18.4 16.7 90 0.0 18 18   101.78     LegendNANA
03:00 18.6 16.9 90 0.0 18 15   101.76     LegendNANA
04:00 18.2 16.9 92 0.5 20 15   101.76     LegendNANA
05:00 18.5 17.4 93 0.0 20 20   101.70     LegendNANA
06:00 19.2 17.9 92 0.0 21 21   101.73     LegendNANA
07:00 18.7 17.7 94 0.0 22 15   101.79     LegendNANA
08:00 19.6 18.0 90 0.0 21 20   101.78     LegendNANA
09:00 20.6 18.7 89 0.0 21 18   101.75 27   LegendNANA
10:00 20.4 18.4 88 0.0 23 18   101.74 27   LegendNANA
11:00 20.3 18.3 88 0.0 24 24   101.70 27   LegendNANA
12:00 20.4 18.5 89 0.0 24 20   101.68 27   LegendNANA
13:00 20.9 18.8 88 0.0 24 18   101.65 28   LegendNANA
14:00 21.6 19.2 86 0.0 25 19   101.62 29   LegendNANA
15:00 21.6 19.4 87 0.0 24 12   101.59 29   LegendNANA
16:00 22.5 19.5 83 0.0 22 14   101.55 30   LegendNANA
17:00 24.4 20.6 80 0.0 16 13   101.50 32   LegendNANA
18:00 21.7 19.2 86 0.0 16 7   101.46 29   LegendNANA
19:00 21.6 19.3 86 0.0 15 10   101.44 29   LegendNANA
20:00 20.2 18.7 91 0.0 15 8   101.40 27   LegendNANA
21:00 19.7 18.8 94 0.0 15 10   101.42     LegendNANA
22:00 20.8 19.8 94 0.0 18 11   101.41 28   LegendNANA
23:00 20.8 20.0 95 0.0 20 14   101.38 28   LegendNANA

Notes on Data Quality.

Legend

  • E = Estimated
  • M = Missing
  • NA = Not Available*
  • [empty] = Indicates an unobserved value
Date modified: